Location: Seattle
(47.6064°N, 122.3308°W)
Time: 15:47:26
(UTC-08:00)

COSMOS 2251 DEB - Visible Passes

Search period start: 01 December 2023 00:00
Search period end: 11 December 2023 00:00
Orbit: 671 x 704 km, 74.0° (Epoch: 30 November)

Date Brightness Start Highest point End Pass type
(mag) Time Alt. Az. Time Alt. Az. Time Alt. Az.
02 Dec ? 06:28:17 10° NNE 06:29:44 11° NE 06:31:11 10° ENE visible
04 Dec ? 06:06:10 10° NNE 06:07:45 11° NE 06:09:19 10° ENE visible
05 Dec ? 06:43:35 10° N 06:47:38 25° NE 06:51:40 10° ESE visible
06 Dec ? 05:44:01 10° NNE 05:45:41 12° NE 05:47:21 10° ENE visible
07 Dec ? 06:21:27 10° N 06:25:31 25° NE 06:29:35 10° ESE visible
08 Dec ? 05:21:46 10° NNE 05:23:32 12° NE 05:25:17 10° ENE visible
08 Dec ? 07:00:03 10° NNW 07:04:55 62° ENE 07:09:47 10° SE visible
09 Dec ? 05:59:14 10° N 06:03:20 26° NE 06:07:25 10° ESE visible
10 Dec ? 04:59:29 10° NNE 05:01:18 12° NE 05:03:08 10° ENE visible
10 Dec ? 06:37:47 10° NNW 06:42:41 63° ENE 06:47:32 10° SSE visible
